This is the latest recevied weather packets stored in our database for station/object K5OBH. If no packets are shown the sender has not sent any weather packets the latest 10 day(s).
| Time | Temp. | Humidity | Pressure | Rain* | Wind** | Luminosity | Snow |
|---|---|---|---|---|---|---|---|
| 1777578061 | 20° C | 54% | 1015.6 hPa | 0 mm | - | 546 W/m² | - |
| 1777577761 | 20° C | 53% | 1015.6 hPa | 0 mm | - | 415 W/m² | - |
| 1777577458 | 19.44° C | 55% | 1015.7 hPa | 0 mm | - | 652 W/m² | - |
| 1777577155 | 20° C | 56% | 1015.8 hPa | 0 mm | - | 742 W/m² | - |
| 1777576851 | 20° C | 55% | 1015.7 hPa | 0 mm | - | 785 W/m² | - |
| 1777576550 | 20° C | 58% | 1015.9 hPa | 0 mm | - | 413 W/m² | - |
| 1777576247 | 19.44° C | 55% | 1016 hPa | 0 mm | - | 683 W/m² | - |
| 1777575943 | 19.44° C | 55% | 1016 hPa | 0 mm | - | 775 W/m² | - |
| 1777575639 | 18.89° C | 60% | 1016.1 hPa | 0 mm | - | 835 W/m² | - |
| 1777575335 | 18.89° C | 60% | 1016 hPa | 0 mm | - | 670 W/m² | - |
| 1777575032 | 18.89° C | 58% | 1016.2 hPa | 0 mm | - | 756 W/m² | - |
| 1777574728 | 18.89° C | 59% | 1016.2 hPa | 0 mm | - | 819 W/m² | - |
| 1777574426 | 18.89° C | 61% | 1016.3 hPa | 0 mm | - | 645 W/m² | - |
| 1777574121 | 18.33° C | 61% | 1016.3 hPa | 0 mm | - | 537 W/m² | - |
| 1777573816 | 18.33° C | 61% | 1016.4 hPa | 0 mm | - | 496 W/m² | - |
| 1777573512 | 17.78° C | 62% | 1016.3 hPa | 0 mm | - | 361 W/m² | - |
| 1777573208 | 17.78° C | 61% | 1016.7 hPa | 0 mm | - | 336 W/m² | - |
| 1777572904 | 18.33° C | 60% | 1016.8 hPa | 0 mm | - | 391 W/m² | - |
| 1777572600 | 18.33° C | 61% | 1016.8 hPa | 0 mm | - | 452 W/m² | - |
| 1777572295 | 18.33° C | 62% | 1016.6 hPa | 0 mm | - | 437 W/m² | - |
| 1777571991 | 18.33° C | 62% | 1016.8 hPa | 0 mm | - | 542 W/m² | - |
| 1777571685 | 17.78° C | 63% | 1016.8 hPa | 0 mm | - | 593 W/m² | - |
| 1777571383 | 17.78° C | 63% | 1017 hPa | 0 mm | - | 571 W/m² | - |
| 1777571079 | 17.78° C | 62% | 1017.1 hPa | 0 mm | - | 516 W/m² | - |
| 1777570776 | 17.78° C | 61% | 1017.4 hPa | 0 mm | - | 692 W/m² | - |
* Rain latest hour (hover to see other rain measurements)
** Current wind speed in m/s (hover to see current wind gust speed)